| time (UTC) | temp F | wind direction | speed MPH | gust MPH | rain 1hr in | rain 24hr in | rain mn in | humidity % | barometer mb |
| 20260906085310 | 63 | 178 | 1.0 | 7.0 | 0.00 | 0.00 | 0.00 | 74 | 24.8 |
| 20260906084311 | 62 | 130 | 2.0 | 8.0 | 0.00 | 0.00 | 0.00 | 79 | 24.8 |
| 20260906083310 | 62 | 178 | 2.0 | 7.0 | 0.00 | 0.00 | 0.00 | 79 | 24.7 |
| 20260906081312 | 61 | 142 | 2.0 | 4.0 | 0.00 | 0.00 | 0.00 | 85 | 25.0 |
| 20260906074310 | 57 | 193 | 1.0 | 3.0 | 0.00 | 0.00 | 0.00 | 91 | 25.4 |
| 20260906073310 | 56 | 223 | 1.0 | 2.0 | 0.00 | 0.00 | 0.00 | 92 | 25.3 |
| 20260906072310 | 56 | 243 | 0.0 | 2.0 | 0.00 | 0.00 | 0.00 | 93 | 25.4 |
| 20260906071310 | 55 | 209 | 2.0 | 3.0 | 0.00 | 0.00 | 0.00 | 93 | 25.3 |
| 20260906065310 | 53 | 261 | 0.0 | 4.0 | 0.00 | 0.00 | 0.00 | 93 | 25.2 |
| 20260906064310 | 53 | 134 | 0.0 | 2.0 | 0.00 | 0.00 | 0.00 | 93 | 25.0 |
| 20260906063310 | 52 | 134 | 0.0 | 2.0 | 0.00 | 0.00 | 0.00 | 93 | 25.0 |
| 20260906062310 | 51 | 134 | 0.0 | 0.0 | 0.00 | 0.00 | 0.00 | 93 | 24.9 |
| 20260906061311 | 51 | 134 | 0.0 | 0.0 | 0.00 | 0.00 | 0.00 | 92 | 24.9 |
| 20260906055310 | 50 | 133 | 0.0 | 0.0 | 0.00 | 0.00 | 0.00 | 91 | 24.8 |
| 20260906054310 | 50 | 133 | 0.0 | 0.0 | 0.00 | 0.00 | 0.00 | 91 | 24.7 |
| 20260906053310 | 50 | 133 | 0.0 | 0.0 | 0.00 | 0.00 | 0.00 | 91 | 24.8 |
| 20260906051311 | 50 | 133 | 0.0 | 3.0 | 0.00 | 0.00 | 0.00 | 91 | 24.6 |
| 20260906045311 | 50 | 165 | 0.0 | 0.0 | 0.00 | 0.00 | 0.00 | 91 | 24.7 |
| 20260906044313 | 50 | 165 | 0.0 | 0.0 | 0.00 | 0.00 | 0.00 | 91 | 24.6 |
| 20260906043310 | 50 | 165 | 0.0 | 0.0 | 0.00 | 0.00 | 0.00 | 90 | 24.7 |
| 20260906042310 | 50 | 165 | 0.0 | 0.0 | 0.00 | 0.00 | 0.00 | 91 | 24.7 |
| 20260906041310 | 50 | 165 | 0.0 | 0.0 | 0.00 | 0.00 | 0.00 | 90 | 24.8 |
| 20260906035310 | 50 | 165 | 0.0 | 0.0 | 0.00 | 0.00 | 0.00 | 90 | 24.9 |
| 20260906034310 | 51 | 165 | 0.0 | 2.0 | 0.00 | 0.00 | 0.00 | 90 | 24.9 |
| 20260906033310 | 51 | 165 | 1.0 | 2.0 | 0.00 | 0.00 | 0.00 | 90 | 24.8 |
| 20260906032310 | 51 | 198 | 0.0 | 0.0 | 0.00 | 0.00 | 0.00 | 90 | 24.8 |
| 20260906031310 | 51 | 198 | 0.0 | 0.0 | 0.00 | 0.00 | 0.00 | 91 | 25.1 |
| 20260906025311 | 51 | 198 | 0.0 | 0.0 | 0.00 | 0.00 | 0.00 | 90 | 25.3 |
| 20260906024310 | 51 | 199 | 0.0 | 0.0 | 0.00 | 0.00 | 0.00 | 90 | 25.5 |
| 20260906023310 | 51 | 199 | 0.0 | 0.0 | 0.00 | 0.00 | 0.00 | 90 | 25.4 |
| 20260906022310 | 51 | 198 | 0.0 | 0.0 | 0.00 | 0.00 | 0.00 | 90 | 25.6 |
| 20260906021311 | 52 | 198 | 0.0 | 0.0 | 0.00 | 0.00 | 0.00 | 90 | 25.5 |
| 20260906015310 | 52 | 199 | 0.0 | 0.0 | 0.00 | 0.00 | 0.00 | 89 | 25.0 |
| 20260906014310 | 52 | 198 | 0.0 | 0.0 | 0.00 | 0.00 | 0.00 | 89 | 24.9 |
| 20260906013313 | 52 | 199 | 0.0 | 0.0 | 0.00 | 0.00 | 0.00 | 89 | 25.0 |
| 20260906005310 | 52 | 199 | 0.0 | 0.0 | 0.00 | 0.00 | 0.00 | 88 | 25.1 |
| 20260906004310 | 52 | 198 | 0.0 | 0.0 | 0.00 | 0.00 | 0.00 | 88 | 24.9 |
| 20260906003311 | 52 | 199 | 0.0 | 0.0 | 0.00 | 0.00 | 0.00 | 89 | 25.1 |
| 20260906001310 | 53 | 198 | 0.0 | 2.0 | 0.00 | 0.00 | 0.00 | 88 | 24.9 |
| 20260905235310 | 53 | 249 | 0.0 | 0.0 | 0.00 | 0.00 | 0.00 | 88 | 24.8 |
| 20260905234310 | 53 | 250 | 0.0 | 0.0 | 0.00 | 0.00 | 0.00 | 88 | 24.9 |
| 20260905233309 | 53 | 325 | 0.0 | 0.0 | 0.00 | 0.00 | 0.00 | 89 | 25.0 |
| 20260905232310 | 53 | 325 | 0.0 | 0.0 | 0.00 | 0.00 | 0.00 | 88 | 25.0 |
| 20260905231310 | 53 | 325 | 0.0 | 0.0 | 0.00 | 0.00 | 0.00 | 87 | 24.9 |
| 20260905225309 | 54 | 325 | 0.0 | 0.0 | 0.00 | 0.00 | 0.00 | 87 | 24.7 |
| 20260905224310 | 54 | 325 | 0.0 | 0.0 | 0.00 | 0.00 | 0.00 | 88 | 24.7 |
| 20260905223309 | 54 | 325 | 0.0 | 0.0 | 0.00 | 0.00 | 0.00 | 87 | 24.6 |
| 20260905222310 | 54 | 325 | 0.0 | 0.0 | 0.00 | 0.00 | 0.00 | 87 | 24.6 |
| 20260905221310 | 54 | 325 | 0.0 | 0.0 | 0.00 | 0.00 | 0.00 | 85 | 24.4 |
| 20260905220310 | 54 | 325 | 0.0 | 0.0 | 0.00 | 0.00 | 0.00 | 86 | 24.4 |
| 20260905215310 | 54 | 325 | 0.0 | 0.0 | 0.00 | 0.00 | 0.00 | 86 | 24.4 |
| 20260905214311 | 54 | 325 | 0.0 | 0.0 | 0.00 | 0.00 | 0.00 | 84 | 24.4 |
| 20260905213310 | 55 | 325 | 0.0 | 0.0 | 0.00 | 0.00 | 0.00 | 85 | 24.5 |
| 20260905212311 | 55 | 325 | 0.0 | 0.0 | 0.00 | 0.00 | 0.00 | 84 | 24.4 |
| 20260905211310 | 55 | 325 | 0.0 | 0.0 | 0.00 | 0.00 | 0.00 | 83 | 24.5 |
| 20260905210310 | 55 | 325 | 0.0 | 0.0 | 0.00 | 0.00 | 0.00 | 84 | 24.6 |
| 20260905204310 | 56 | 325 | 0.0 | 0.0 | 0.00 | 0.00 | 0.00 | 83 | 24.4 |
| 20260905203311 | 56 | 325 | 0.0 | 0.0 | 0.00 | 0.00 | 0.00 | 82 | 24.5 |
| 20260905202310 | 56 | 325 | 0.0 | 0.0 | 0.00 | 0.00 | 0.00 | 82 | 24.2 |
| 20260905201310 | 57 | 325 | 0.0 | 0.0 | 0.00 | 0.00 | 0.00 | 81 | 23.9 |
| 20260905194310 | 58 | 325 | 0.0 | 1.0 | 0.00 | 0.00 | 0.00 | 78 | 24.0 |
| 20260905193310 | 58 | 325 | 0.0 | 0.0 | 0.00 | 0.00 | 0.00 | 77 | 23.9 |
| 20260905192310 | 59 | 325 | 0.0 | 0.0 | 0.00 | 0.00 | 0.00 | 76 | 24.0 |
| 20260905191310 | 59 | 325 | 0.0 | 0.0 | 0.00 | 0.00 | 0.00 | 75 | 23.9 |
| 20260905185310 | 60 | 325 | 0.0 | 1.0 | 0.00 | 0.00 | 0.00 | 72 | 23.8 |
| 20260905184310 | 61 | 329 | 1.0 | 2.0 | 0.00 | 0.00 | 0.00 | 72 | 23.6 |
| 20260905183310 | 61 | 327 | 1.0 | 5.0 | 0.00 | 0.00 | 0.00 | 70 | 23.4 |
| 20260905182310 | 62 | 299 | 2.0 | 6.0 | 0.00 | 0.00 | 0.00 | 69 | 23.3 |
| 20260905181310 | 62 | 328 | 1.0 | 9.0 | 0.00 | 0.00 | 0.00 | 68 | 23.4 |
| 20260905175311 | 62 | 333 | 2.0 | 7.0 | 0.00 | 0.00 | 0.00 | 67 | 23.4 |
| 20260905174310 | 63 | 283 | 2.0 | 8.0 | 0.00 | 0.00 | 0.00 | 67 | 23.4 |
| 20260905172310 | 64 | 323 | 3.0 | 10.0 | 0.00 | 0.00 | 0.00 | 64 | 23.3 |
| 20260905165311 | 65 | 350 | 2.0 | 8.0 | 0.00 | 0.00 | 0.00 | 64 | 22.9 |
| 20260905164310 | 65 | 313 | 4.0 | 11.0 | 0.00 | 0.00 | 0.00 | 64 | 23.0 |
| 20260905162310 | 65 | 316 | 4.0 | 15.0 | 0.00 | 0.00 | 0.00 | 62 | 22.9 |
| 20260905161310 | 65 | 313 | 4.0 | 13.0 | 0.00 | 0.00 | 0.00 | 62 | 22.6 |
| 20260905155310 | 65 | 320 | 4.0 | 12.0 | 0.00 | 0.00 | 0.00 | 62 | 22.3 |
| 20260905154310 | 65 | 306 | 6.0 | 13.0 | 0.00 | 0.00 | 0.00 | 60 | 22.2 |
| 20260905152311 | 67 | 9 | 5.0 | 15.0 | 0.00 | 0.00 | 0.00 | 61 | 22.1 |
| 20260905151310 | 67 | 304 | 7.0 | 17.0 | 0.00 | 0.00 | 0.00 | 58 | 21.8 |
| 20260905145310 | 66 | 342 | 5.0 | 13.0 | 0.00 | 0.00 | 0.00 | 63 | 21.7 |
| 20260905144310 | 66 | 314 | 7.0 | 14.0 | 0.00 | 0.00 | 0.00 | 61 | 21.6 |
| 20260905142310 | 66 | 355 | 3.0 | 17.0 | 0.00 | 0.00 | 0.00 | 60 | 21.4 |
| 20260905135310 | 69 | 344 | 6.0 | 18.0 | 0.00 | 0.00 | 0.00 | 59 | 21.2 |
| 20260905134310 | 68 | 325 | 8.0 | 18.0 | 0.00 | 0.00 | 0.00 | 60 | 21.1 |
| 20260905133310 | 68 | 263 | 9.0 | 17.0 | 0.00 | 0.00 | 0.00 | 59 | 20.9 |
| 20260905132310 | 68 | 355 | 7.0 | 20.0 | 0.00 | 0.00 | 0.00 | 59 | 20.8 |
| 20260905131310 | 68 | 329 | 8.0 | 15.0 | 0.00 | 0.00 | 0.00 | 58 | 20.7 |
| 20260905124310 | 69 | 269 | 9.0 | 21.0 | 0.00 | 0.00 | 0.00 | 57 | 20.6 |
| 20260905123310 | 70 | 339 | 10.0 | 20.0 | 0.00 | 0.00 | 0.00 | 56 | 20.5 |
| 20260905122311 | 70 | 307 | 11.0 | 24.0 | 0.00 | 0.00 | 0.00 | 56 | 20.3 |
| 20260905121310 | 69 | 346 | 7.0 | 12.0 | 0.00 | 0.00 | 0.00 | 61 | 20.3 |
| 20260905115310 | 68 | 309 | 10.0 | 19.0 | 0.00 | 0.00 | 0.00 | 60 | 20.3 |
| 20260905114310 | 67 | 281 | 10.0 | 19.0 | 0.00 | 0.00 | 0.00 | 62 | 20.0 |
| 20260905113310 | 67 | 317 | 10.0 | 18.0 | 0.00 | 0.00 | 0.00 | 64 | 19.9 |
| 20260905112310 | 67 | 11 | 9.0 | 25.0 | 0.00 | 0.00 | 0.00 | 65 | 20.0 |
| 20260905111310 | 67 | 333 | 11.0 | 22.0 | 0.00 | 0.00 | 0.00 | 63 | 19.7 |
| 20260905110310 | 67 | 261 | 12.0 | 21.0 | 0.00 | 0.00 | 0.00 | 63 | 19.7 |
| 20260905103310 | 65 | 309 | 7.0 | 21.0 | 0.00 | 0.00 | 0.00 | 65 | 19.5 |
| 20260905102310 | 65 | 301 | 10.0 | 16.0 | 0.00 | 0.00 | 0.00 | 66 | 19.3 |
| 20260905101310 | 66 | 288 | 9.0 | 20.0 | 0.00 | 0.00 | 0.00 | 66 | 19.3 |
| 20260905095310 | 66 | 291 | 7.0 | 18.0 | 0.00 | 0.00 | 0.00 | 69 | 19.0 |
| 20260905094310 | 66 | 294 | 7.0 | 20.0 | 0.00 | 0.00 | 0.00 | 71 | 18.8 |
| 20260905093310 | 66 | 298 | 10.0 | 19.0 | 0.00 | 0.00 | 0.00 | 68 | 18.8 |
| 20260905092310 | 65 | 317 | 6.0 | 20.0 | 0.00 | 0.00 | 0.00 | 74 | 18.5 |
| 20260905091310 | 65 | 310 | 9.0 | 18.0 | 0.00 | 0.00 | 0.00 | 71 | 18.6 |